Weather History for Martha's Vineyard, MA

Change the Weather History Date:

Sunday, October 26, 2014

  Actual Average Record
Temperature  
Mean Temperature 56 °F -  
Max Temperature 62 °F 60 °F 70 °F (1963)
Min Temperature 50 °F 45 °F 28 °F (2013)
Degree Days  
Heating Degree Days 10    
Growing Degree Days 6 (Base 50)    
Moisture  
Dew Point 42 °F    
Average Humidity 61    
Maximum Humidity 83    
Minimum Humidity 46    
Precipitation  
Precipitation 0.01 in - - ()
Sea Level Pressure  
Sea Level Pressure 29.55 in    
Wind  
Wind Speed 12 mph (WNW)    
Max Wind Speed 20 mph    
Max Gust Speed 33 mph    
Visibility 10 miles    
Events Rain    
Averages and records for this station are not official NWS values.
T = Trace of Precipitation, MM = Missing Value Source: NWS Daily Summary

Daily Weather History Graph

Daily Weather History Graph

Search for Another Location

Airport:

Trip Planner

Search our weather history database for the weather conditions in past years. The results will help you decide how hot, cold, wet, or windy it might be!

Date:

Astronomy

Oct. 26, 2014 Rise Set
Actual Time 7:06 AM EDT 5:45 PM EDT
Civil Twilight 6:38 AM EDT 6:13 PM EDT
Nautical Twilight 6:06 AM EDT 6:46 PM EDT
Astronomical Twilight 5:33 AM EDT 7:18 PM EDT
Moon 9:43 AM EDT (10/26) 7:52 PM EDT (10/26)
Length of Visible Light 11h 35m
Length of Day
10h 38m
Waxing Crescent, 8% of the Moon is Illuminated
Oct 26
Waxing Crescent
Oct 30
First Quarter
Nov 6
Full
Nov 14
Last Quarter
Nov 22
New

Hourly Weather History & Observations

Time (EDT) Temp. Dew Point Humidity Pressure Visibility Wind Dir Wind Speed Gust Speed Precip Events Conditions
12:53 AM 61.0 °F 53.1 °F 75% 29.52 in 10.0 mi SW 11.5 mph 23.0 mph N/A   Overcast
1:53 AM 61.0 °F 53.1 °F 75% 29.49 in 10.0 mi WSW 10.4 mph - N/A   Partly Cloudy
2:53 AM 61.0 °F 51.1 °F 70% 29.49 in 10.0 mi WNW 11.5 mph 24.2 mph N/A   Partly Cloudy
3:53 AM 59.0 °F 48.0 °F 67% 29.47 in 10.0 mi WNW 5.8 mph - N/A   Overcast
4:53 AM 55.9 °F 46.9 °F 72% 29.46 in 10.0 mi WNW 4.6 mph - 0.00 in Rain Light Rain
5:53 AM 53.1 °F 48.0 °F 83% 29.48 in 10.0 mi WSW 5.8 mph - 0.01 in   Overcast
6:53 AM 55.0 °F 46.0 °F 72% 29.48 in 10.0 mi West 8.1 mph - N/A   Scattered Clouds
7:53 AM 53.1 °F 44.1 °F 71% 29.49 in 10.0 mi West 5.8 mph - N/A   Clear
8:53 AM 55.9 °F 39.0 °F 53% 29.50 in 10.0 mi West 12.7 mph 23.0 mph N/A   Clear
9:53 AM 57.0 °F 39.0 °F 51% 29.50 in 10.0 mi West 18.4 mph 33.4 mph N/A   Clear
10:53 AM 57.9 °F 39.0 °F 49% 29.50 in 10.0 mi WNW 16.1 mph 31.1 mph N/A   Clear
11:53 AM 57.9 °F 39.9 °F 51% 29.50 in 10.0 mi WNW 18.4 mph 25.3 mph N/A   Partly Cloudy
12:53 PM 57.9 °F 39.0 °F 49% 29.49 in 10.0 mi WNW 18.4 mph 29.9 mph N/A   Partly Cloudy
1:53 PM 57.0 °F 41.0 °F 55% 29.49 in 10.0 mi WNW 19.6 mph 29.9 mph N/A   Scattered Clouds
2:53 PM 59.0 °F 37.9 °F 46% 29.50 in 10.0 mi WNW 18.4 mph 32.2 mph N/A   Partly Cloudy
3:53 PM 57.0 °F 37.0 °F 47% 29.52 in 10.0 mi WNW 16.1 mph 23.0 mph N/A   Partly Cloudy
4:53 PM 55.9 °F 37.9 °F 51% 29.55 in 10.0 mi WNW 16.1 mph 31.1 mph N/A   Scattered Clouds
5:53 PM 55.0 °F 37.9 °F 53% 29.58 in 10.0 mi WNW 17.3 mph 29.9 mph N/A   Overcast
6:53 PM 53.1 °F 39.0 °F 59% 29.62 in 10.0 mi WNW 16.1 mph 25.3 mph N/A   Scattered Clouds
7:53 PM 51.1 °F 39.0 °F 63% 29.66 in 10.0 mi WNW 15.0 mph 21.9 mph N/A   Clear
8:53 PM 51.1 °F 39.0 °F 63% 29.69 in 10.0 mi WNW 11.5 mph 23.0 mph N/A   Clear
9:53 PM 51.1 °F 39.9 °F 66% 29.71 in 10.0 mi WNW 13.8 mph 24.2 mph N/A   Clear
10:53 PM 50.0 °F 39.9 °F 68% 29.73 in 10.0 mi WNW 11.5 mph - N/A   Clear
11:53 PM 50.0 °F 39.0 °F 66% 29.74 in 10.0 mi WNW 10.4 mph 21.9 mph N/A   Partly Cloudy